SCP
0 0 0 0 0 0 0 0 0 0 0 0 0 0 0 0 0 0 0 0 0 0 0 0 0 0 0 0 0 0 0 0 0 0 0 0 0 0
0 0 0 0 0 0 0 0 0 0 0 0 0 0 0 0 0 0 0 0 0 0 0 0 0 0 0 0 0 0 0 0 0 0 0 0 0 0
0 0 0 0 0 0 0 0 0 0 0 0 0 0 0 0 0 0 0 0 0 0 0 0 0 0 0 0 0 0 0 0 0 0 0 0 0 0
0 0 0 0 0 0 0 0 0 0 0 0 0 0 0 0 0 0 0 0 0 0 0 0 0 0 0 0 0 0 0 0 0 0 0 0 0 0
0 0 0 0 0 0 0 0 0 0 0 0 0 0 0 0 0 0 0 0 0 0 0 0 0 0 0 0 0 0 0 0 0 0 0 0 0 0
0 0 0 0 0 0 0 0 0 0 0 0 0 0 0 0 0 0 0 0 0 0 0 0 0 0 0 0 0 0 0 0 0 0 0 0 0 0
0 0 0 0 0 0 0 0 0 0 0 0 0 0 0 0 0 0 0 0 0 0 0 0 0 0 0 0 0 0 0 0 0 0 0 0 0 0
0 0 0 0 0 0 0 0 0 0 0 0 0 0 0 0 0 0 0 0 0 0 0 0 0 0 0 0 0 0 0 0 0 0 0 0 0 0
0 0 0 0 0 0 0 0 0 0 0 0 0 0 0 0 0 0 0 0 0 0 0 0 0 0 0 0 0 0 0 0 0 0 0 0 0 0
0 0 0 0 0 0 0 0 0 0 0 0 0 0 0 0 0 0 0 0 0 0 0 0 0 0 0 0 0 0 0 0 0 0 0 0 0 0
0 0 0 0 0 0 0 0 0 0 0 0 0 0 0 0 0 0 0 0 0 0 0 0 0 0 0 0 0 0 0 0 0 0 0 0 0 0
0 0 0 0 0 0 0 0 0 0 0 0 0 0 0 0 0 0 0 0 0 0 0 0 0 0 0 0 0 0 0 0 0 0 0 0 0 0
0 0 0 0 0 0 0 0 0 0 0 0 0 0 0 0 0 0 0 0 0 0 0 0 0 0 0 0 0 0 0 0 0 0 0 0 0 0
0 0 0 0 0 0 0 0 0 0 0 0 0 0 0 0 0 0 0 0 0 0 0 0 0 0 0 0 0 0 0 0 0 0 0 0 0 0
0 0 0 0 0 0 0 0 0 0 0 0 0 0 0 0 0 0 0 0 0 0 0 0 0 0 0 0 0 0 0 0 0 0 0 0 0 0
0 0 0 0 0 0 0 0 0 0 0 0 0 0 0 0 0 0 0 0 0 0 0 0 0 0 0 0 0 0 0 0 0 0 0 0 0 0
0 0 0 0 0 0 0 0 0 0 0 0 0 0 0 0 0 0 0 0 0 0 0 0 0 0 0 0 0 0 0 0 0 0 0 0 0 0
0 0 0 0 0 0 0 0 0 0 0 0 0 0 0 0 0 0 0 0 0 0 0 0 0 0 0 0 0 0 0 0 0 0 0 0 0 0
0 0 0 0 0 0 0 0 0 0 0 0 0 0 0 0 0 0 0 0 0 0 0 0 0 0 0 0 0 0 0 0 0 0 0 0 0 0
0 0 0 0 0 0 0 0 0 0 0 0 0 0 0 0 0 0 0 0 0 0 0 0 0 0 0 0 0 0 0 0 0 0 0 0 0 0
0 0 0 0 0 0 0 0 0 0 0 0 0 0 0 0 0 0 0 0 0 0 0 0 0 0 0 0 0 0 0 0 0 0 0 0 0 0
0 0 0 0 0 0 0 0 0 0 0 0 0 0 0 0 0 0 0 0 0 0 0 0 0 0 0 0 0 0 0 0 0 0 0 0 0 0
0 0 0 0 0 0 0 0 0 0 0 0 0 0 0 0 0 0 0 0 0 0 0 0 0 0 0 0 0 0 0 0 0 0 0 0 0 0
Wind_Speed
3 3 2 2 2 2 2 1 1 1 2 2 2 2 1 1 0 0 0 1 1 2 2 2 3 3 3 4 3 3 3 3 3 3 4 4 5 7
2 3 3 2 2 2 1 1 1 0 1 2 1 1 1 2 1 1 1 1 2 3 2 3 3 4 4 4 4 4 4 4 5 5 5 5 6 6
3 3 3 3 2 2 2 2 1 1 1 2 2 1 2 1 1 2 1 1 1 3 3 3 4 4 4 4 4 4 4 5 5 6 6 6 7 7
3 3 3 3 4 3 3 2 2 1 1 2 3 2 2 2 1 2 2 2 2 3 4 4 4 4 4 5 5 5 5 5 5 5 6 6 7 7
3 3 3 3 4 3 3 3 3 3 2 2 3 2 2 2 2 2 2 2 3 3 4 4 5 5 6 5 5 5 5 5 5 6 6 7 7 7
4 4 4 4 4 4 4 4 4 3 3 2 3 3 2 3 1 2 2 2 3 3 3 3 5 6 6 6 6 6 6 6 6 6 6 6 6 6
3 3 3 4 5 4 4 4 4 3 3 2 3 3 3 3 3 2 3 3 3 2 2 2 2 3 4 6 7 7 7 7 7 7 6 6 6 6
3 3 3 3 4 5 6 6 5 3 3 2 2 3 4 4 3 3 3 3 4 2 1 3 2 3 3 3 6 8 9 8 8 8 8 7 7 7
3 2 3 5 6 4 5 5 5 7 6 4 3 4 4 4 3 4 4 4 5 4 2 4 3 4 4 4 7 9 10 10 10 10 10 9 9 9
3 3 3 4 6 7 5 5 4 5 6 4 3 5 5 4 4 5 5 5 5 4 3 4 4 4 5 4 7 9 10 10 10 11 10 10 10 10
3 4 4 3 8 10 6 5 5 5 7 8 9 9 10 10 7 3 3 3 5 5 3 3 4 4 4 4 5 8 9 9 10 11 11 10 10 9
2 2 4 5 8 9 5 4 5 6 7 8 8 8 7 7 8 3 2 3 4 5 3 2 4 3 4 3 3 3 4 6 8 9 10 10 9 6
3 2 2 7 9 11 9 5 7 8 6 6 5 5 4 4 4 3 3 2 3 5 4 3 4 4 4 5 4 3 3 3 4 5 8 10 10 7
4 3 3 8 10 12 9 9 12 11 5 4 4 4 4 3 4 4 4 4 4 5 6 4 4 4 4 5 5 4 3 3 4 4 4 6 8 9
4 7 9 11 10 8 9 11 9 5 4 4 4 4 3 4 4 4 5 5 5 6 6 5 4 4 4 5 5 4 5 5 4 4 4 4 5 4
4 7 10 10 8 8 8 6 4 4 4 3 4 4 3 3 3 3 4 4 4 5 5 5 5 5 4 5 5 6 5 4 4 4 4 4 3 4
5 4 4 4 4 4 4 4 3 3 4 3 3 4 4 4 4 4 4 4 4 5 5 4 4 4 5 5 6 6 5 5 4 4 4 4 4 4
7 4 5 5 4 4 4 4 3 3 3 3 3 3 4 4 5 4 4 4 5 5 5 4 4 5 5 5 6 6 5 5 4 4 4 4 6 5
4 4 5 4 4 4 4 4 4 4 3 4 4 4 4 4 5 5 5 5 5 5 5 4 4 4 7 8 6 4 5 5 4 4 4 4 6 5
3 4 5 4 4 4 4 4 4 4 4 4 4 4 4 5 5 5 5 6 6 6 5 4 4 5 6 7 8 7 7 6 5 5 5 4 4 5
4 4 4 4 4 4 4 4 4 4 5 4 4 5 4 5 5 5 5 8 7 6 7 6 6 8 5 4 6 6 5 6 7 6 5 4 4 4
4 4 4 4 4 4 4 4 4 5 5 5 4 4 4 5 5 6 6 6 6 7 8 7 6 5 4 6 8 8 7 5 5 8 8 7 5 5
4 4 4 4 4 4 4 4 5 5 5 5 5 5 5 5 5 6 6 7 7 8 8 7 6 5 6 6 7 7 7 6 5 5 5 6 8 10
Wind_Direction
5 5 9 8 15 14 19 46 68 356 327 331 358 336 344 64 97 266 265 243 238 275 298 319 317 317 317 311 309 291 273 262 259 250 237 236 240 237
6 11 6 360 5 2 358 4 30 163 281 296 303 299 344 356 329 306 336 210 256 269 278 297 307 299 291 287 288 282 269 257 251 252 246 239 244 246
355 11 4 8 5 349 355 3 359 18 312 305 318 322 345 325 322 294 267 236 263 266 264 264 279 292 290 280 275 273 270 264 258 259 250 242 242 246
354 10 12 13 5 353 353 348 346 339 338 312 310 322 325 310 289 293 297 286 271 261 247 258 264 270 279 277 269 263 261 262 261 263 260 253 249 248
359 7 10 22 6 352 354 355 350 349 345 330 311 308 303 310 322 317 311 300 293 282 252 254 262 269 266 269 263 253 250 250 252 254 259 258 254 250
7 10 17 29 15 2 358 350 347 342 337 336 321 320 314 307 323 306 309 298 290 294 291 268 254 256 260 259 259 252 245 242 243 246 251 258 258 252
6 9 24 34 27 17 7 349 347 337 333 335 324 328 324 330 320 303 306 299 288 275 289 286 272 263 260 258 255 256 248 243 242 241 243 248 252 252
353 355 2 18 12 6 355 346 340 333 322 318 313 312 307 309 317 321 316 317 304 297 303 292 288 280 268 247 240 243 247 244 241 240 240 240 244 248
340 351 355 19 18 356 340 332 335 330 323 301 298 297 297 302 310 309 301 294 281 275 287 285 282 278 274 267 250 242 240 239 238 239 239 238 239 243
357 14 24 23 10 358 341 342 336 329 316 308 292 287 292 291 280 277 276 286 286 282 264 272 273 271 278 273 257 248 240 240 241 240 241 241 240 241
11 24 22 21 358 354 346 335 327 319 320 319 307 299 298 299 296 299 296 297 296 288 275 270 278 282 275 272 269 254 247 247 247 243 242 241 242 243
356 21 24 5 347 348 341 328 319 313 320 318 311 305 299 295 298 280 272 288 295 294 289 289 292 301 294 276 270 264 260 260 256 253 250 245 242 239
335 332 331 339 333 328 323 308 299 304 303 301 303 306 309 310 303 292 279 267 278 281 292 302 293 288 273 282 282 269 258 265 262 257 250 246 240 230
318 321 316 321 322 317 312 300 304 310 300 300 302 301 302 304 304 302 295 285 271 274 286 289 279 281 286 286 283 278 270 260 256 255 244 243 244 240
313 318 314 310 309 305 295 296 301 299 295 295 292 287 286 292 303 309 305 299 295 293 296 293 284 279 274 276 279 280 286 279 258 255 242 235 234 234
317 313 310 304 295 289 293 293 284 278 283 280 286 288 298 305 304 304 303 302 302 298 293 292 289 284 280 276 275 275 269 267 275 270 255 248 240 233
309 300 294 294 291 288 290 290 288 295 294 289 291 299 301 301 297 299 296 298 291 292 296 297 291 283 273 272 277 272 268 265 262 269 268 263 254 240
308 293 288 285 284 289 293 294 293 295 295 294 295 295 295 295 294 295 296 291 289 287 287 291 303 310 305 285 256 270 270 266 267 265 263 265 267 257
293 280 280 283 286 286 284 285 287 287 290 289 287 288 288 288 289 290 289 287 285 285 285 288 291 292 295 294 284 259 271 274 269 263 257 257 266 264
272 276 281 283 284 287 288 289 290 293 292 289 287 286 286 287 289 289 289 286 284 284 284 282 275 269 270 280 286 283 266 262 264 263 260 262 266 267
277 281 285 288 288 288 290 292 291 289 291 292 290 289 289 289 287 283 285 290 288 286 283 277 267 269 270 280 282 277 272 263 261 263 262 264 275 276
284 283 285 288 290 290 291 291 291 291 293 290 289 288 286 287 288 290 290 291 286 281 283 283 281 279 275 275 276 278 282 286 282 274 264 252 247 253
287 288 288 290 289 288 287 288 289 288 288 288 289 287 285 284 282 281 284 285 285 283 285 286 285 278 271 265 270 276 279 282 284 279 272 257 255 262